[[{"header":{"parameterUnit":"m.s-1","parameterCategory":1,"la1":30.2991,"la2":30.254,"lo1":-89.0895,"lo2":-89.0444,"dy":0.0017,"dx":0.0017,"nx":28,"ny":28,"refTime":"2024-04-03T09:00:00:Z","depth":0,"parameterNumber":2,"parameterNumberName":"U-component_of_WINDS"},"data":[0,0,0,0,0,0,0,0,0,0,0,0,0,0,0,0,0,0,0,0,0,0,0,0,0,0,0,0,0,0,0,0,0,0,0,0,0,0,0,0,0,0,0,0,0,0,0,0,0,0,0,0,0,0,0,0,0,0,6.6098,6.61,0,6.6216,6.6217,6.6219,6.6143,6.6139,6.6136,6.6132,6.6253,6.626,6.6266,0,0,0,0,0,0,0,0,0,0,0,0,0,6.5808,6.5814,6.6098,6.61,6.6101,6.6216,6.6218,6.6219,6.6143,6.6139,6.6135,6.6131,6.6251,6.6259,6.6267,0,0,0,0,0,0,0,0,0,0,0,0,0,6.5931,6.5816,6.6098,6.6077,6.6076,6.6216,6.6218,6.622,6.6144,6.6139,6.6133,6.6129,6.6249,6.6258,6.6268,6.6434,0,0,6.6298,6.6302,0,0,0,0,0,0,0,0,6.5924,6.5942,6.6079,6.6079,6.6078,6.6159,6.616,6.6292,6.6145,6.6118,6.6132,6.6126,6.6226,6.6238,6.6271,6.644,6.6445,6.6299,6.6305,6.6309,6.6312,0,0,0,0,0,0,0,6.5916,6.5936,6.6145,6.6081,6.6081,6.6062,6.6074,6.6184,6.6201,6.612,6.6115,6.613,6.6225,6.6262,6.6274,6.6447,6.6298,6.6307,6.6313,6.6317,6.6758,6.6764,0,0,0,0,0,0,6.5909,6.593,6.6141,6.6148,6.5987,6.6072,6.6085,6.6139,6.6199,6.6203,6.6135,6.6126,6.6248,6.6262,6.6278,6.6476,6.6309,6.6318,6.6324,6.6752,6.676,6.6766,0,0,0,0,0,0,6.5903,6.5929,6.6136,6.6038,6.6063,6.6082,6.6144,6.6144,6.618,6.621,6.6213,6.6169,6.6244,6.6264,6.6396,6.6479,6.6322,6.6331,6.6746,6.6755,6.6763,6.6875,0,0,0,0,0,0,6.5895,6.5927,6.599,6.604,6.6068,6.6253,6.6149,6.615,6.6198,6.6188,6.6243,6.6247,6.6242,6.6382,6.6406,6.649,6.6339,6.6738,6.675,6.676,6.6864,6.6887,6.6906,0,0,0,0,0,6.5885,6.6017,6.5994,6.602,6.6148,6.6258,6.6274,6.6265,6.6205,6.6268,6.6287,6.6246,6.6467,6.6396,6.6422,6.6511,6.6733,6.6746,6.6759,6.6855,6.6882,6.6906,0,0,0,0,0,0,6.5977,6.6023,6.5998,6.615,6.6201,6.6245,6.6325,6.6294,6.6363,6.6351,6.6337,6.635,6.6488,6.6513,6.6433,6.6675,6.659,6.6609,6.6654,6.6681,6.6701,6.6692,6.6347,0,0,0,0,0,6.6015,6.61,6.6136,6.6267,6.6294,6.6305,6.6353,6.6341,6.6393,6.6414,6.6443,6.6495,6.6576,6.663,6.6706,6.6868,6.6879,6.6942,6.6963,6.698,6.6996,6.7084,6.7112,6.6809,6.6809,6.6809,0,0,6.6094,6.613,6.6185,6.6286,6.6324,6.6413,6.6324,6.6421,6.6487,6.6429,6.6555,6.6578,6.6636,6.6783,6.685,6.6808,6.7082,6.6997,6.701,6.7017,6.71,6.7129,6.7154,6.6818,6.6816,6.6815,0,0,6.6284,6.632,6.6432,6.6472,6.6531,6.6538,6.6565,6.6614,6.6627,6.6754,6.6712,6.679,6.693,6.6973,6.7013,6.722,6.7184,6.7245,6.7355,6.744,6.7464,6.7485,6.7558,6.7585,6.7262,6.7262,6.7262,0,6.6375,6.6506,6.6494,6.6595,6.6641,6.6593,6.6707,6.6747,6.6828,6.686,6.6813,6.6988,6.7023,6.718,6.723,6.7264,6.7295,6.7238,6.7461,6.7482,6.7502,6.7572,6.76,6.7269,6.7268,6.7268,6.7267,0,6.6616,6.6708,6.6792,6.6871,6.6926,6.7034,6.7038,6.7096,6.708,6.7092,6.7222,6.7263,6.7346,6.7383,6.7369,6.7538,6.7511,6.7463,6.7377,6.7538,6.7603,6.763,6.7279,6.7277,6.7274,6.7273,0,0,6.6866,6.6937,6.6968,6.7003,6.7064,6.7135,6.7241,6.7323,6.7372,6.743,6.7518,6.7638,6.7594,6.764,6.763,6.7705,6.7866,6.7648,6.7649,6.7686,6.8055,6.809,6.8121,6.7843,6.7848,6.7852,6.805,0,6.7058,6.7242,6.7234,6.7405,6.749,6.7446,6.7538,6.7586,6.76,6.7675,6.7691,6.7776,6.7712,6.7739,6.7811,6.7831,6.794,6.7817,6.7924,6.7928,6.791,6.8156,6.8193,6.8378,6.8076,6.808,6.8083,0,6.7308,6.7373,6.7553,6.7602,6.7637,6.772,6.7794,6.7866,6.792,6.7925,6.7976,6.7955,6.8061,6.7974,6.8121,6.8037,6.8081,6.8098,6.8105,6.8114,6.8015,6.8171,6.8437,6.8465,6.8123,6.812,6.8117,0,6.7471,6.7605,6.773,6.7762,6.7822,6.7881,6.7909,6.7957,6.8007,6.8072,6.8104,6.8182,6.8224,6.8284,6.8284,6.822,6.8433,6.8345,6.844,6.8441,6.8486,6.8483,6.8763,6.8516,6.8516,6.8515,6.8515,0,6.7687,6.7799,6.7804,6.7881,6.8005,6.7996,6.8119,6.8141,6.8184,6.8264,6.8231,6.8308,6.8303,6.838,6.8381,6.8503,6.8522,6.8529,6.8528,6.8532,6.8531,6.856,6.8547,6.8523,6.8521,6.852,6.8518,0,6.7891,6.7899,6.8032,6.8078,6.8093,6.8182,6.8221,6.8294,6.8306,6.8408,6.8432,6.8451,6.854,6.8546,6.8649,6.865,6.8797,6.8782,6.8779,6.8776,6.8871,6.8862,6.9178,6.9219,6.8946,6.8949,6.8951,0,6.8028,6.8112,6.8168,6.8219,6.825,6.8334,6.8384,6.8379,6.8433,6.85,6.8565,6.8652,6.872,6.8865,6.8888,6.8967,6.8953,6.9059,6.8965,6.8966,6.8954,6.8949,6.8957,6.9077,6.908,6.9082,6.9084,0,6.827,6.8269,6.8343,6.842,6.8481,6.854,6.8596,6.864,6.8641,6.8703,6.8794,6.8848,6.8953,6.9039,6.9116,6.9145,6.9116,6.9114,6.914,6.9144,6.9138,6.9142,6.8828,6.9106,6.9104,6.9102,6.9101,6.91,6.8444,6.8517,6.8567,6.8651,6.8692,6.8745,6.8816,6.8836,6.8912,6.8997,6.8989,6.909,6.9142,6.9242,6.9277,6.9356,6.932,6.9358,6.9368,6.9377,6.9387,6.9127,6.937,6.937,6.9369,6.9369,6.9368,0,6.8683,6.8714,6.8791,6.8869,6.8935,6.8901,6.8961,6.9018,6.9107,6.9158,6.9226,6.9331,6.9414,6.9444,6.9525,6.9582,6.9571,6.9604,6.9599,6.9606,6.9414,6.9383,6.9612,6.9612,6.9612,6.9612,6.9612,6.9612,6.8816,6.8938,6.8944,6.9086,6.9116,6.9214,6.9251,6.9299,6.9339,6.9458,6.9527,6.9545,6.9588,6.9672,6.9747,6.9753,6.9785,6.9824,6.9825,6.9644,6.962,6.9596,6.9567,6.9831,6.9831,7.001,7.0011,7.0013]},{"header":{"parameterUnit":"m.s-1","parameterCategory":1,"la1":30.2991,"la2":30.254,"lo1":-89.0895,"lo2":-89.0444,"dy":0.0017,"dx":0.0017,"nx":28,"ny":28,"refTime":"2024-04-03T09:00:00:Z","depth":0,"parameterNumber":3,"parameterNumberName":"V-component_of_WINDS"},"data":[0,0,0,0,0,0,0,0,0,0,0,0,0,0,0,0,0,0,0,0,0,0,0,0,0,0,0,0,0,0,0,0,0,0,0,0,0,0,0,0,0,0,0,0,0,0,0,0,0,0,0,0,0,0,0,0,0,0,-0.6233,-0.6233,0,-0.6301,-0.6302,-0.6303,-0.6353,-0.6353,-0.6353,-0.6354,-0.6423,-0.6424,-0.6426,0,0,0,0,0,0,0,0,0,0,0,0,0,-0.6146,-0.6147,-0.6233,-0.6234,-0.6234,-0.6301,-0.6302,-0.6303,-0.6353,-0.6353,-0.6354,-0.6354,-0.6423,-0.6424,-0.6426,0,0,0,0,0,0,0,0,0,0,0,0,0,-0.6195,-0.6147,-0.6233,-0.6267,-0.6271,-0.6301,-0.6302,-0.6303,-0.6352,-0.6353,-0.6354,-0.6354,-0.6422,-0.6424,-0.6426,-0.6427,0,0,-0.6433,-0.6434,0,0,0,0,0,0,0,0,-0.6193,-0.6199,-0.6261,-0.6265,-0.6269,-0.6319,-0.6297,-0.6344,-0.6352,-0.6321,-0.6354,-0.6355,-0.6388,-0.6393,-0.6404,-0.643,-0.6433,-0.6433,-0.6434,-0.6435,-0.6436,0,0,0,0,0,0,0,-0.6189,-0.6196,-0.626,-0.6262,-0.6267,-0.6279,-0.6287,-0.6306,-0.635,-0.6324,-0.6328,-0.6335,-0.639,-0.6402,-0.6406,-0.6434,-0.6433,-0.6435,-0.6436,-0.6437,-0.6464,-0.6463,0,0,0,0,0,0,-0.618,-0.6193,-0.6258,-0.6262,-0.6232,-0.628,-0.6289,-0.6302,-0.635,-0.6358,-0.6335,-0.6338,-0.6398,-0.6404,-0.6409,-0.6413,-0.6435,-0.6437,-0.6439,-0.6464,-0.6464,-0.6463,0,0,0,0,0,0,-0.6178,-0.6185,-0.6255,-0.6228,-0.6238,-0.6281,-0.6296,-0.6303,-0.6315,-0.6358,-0.6366,-0.6339,-0.6399,-0.6406,-0.6422,-0.6416,-0.6438,-0.644,-0.6465,-0.6464,-0.6463,-0.642,0,0,0,0,0,0,-0.6175,-0.6184,-0.6185,-0.6228,-0.6239,-0.6267,-0.6295,-0.6304,-0.6319,-0.6323,-0.6364,-0.6371,-0.64,-0.6419,-0.6424,-0.6419,-0.6442,-0.6466,-0.6465,-0.6464,-0.6422,-0.6418,-0.6414,0,0,0,0,0,-0.6172,-0.617,-0.6185,-0.6192,-0.6241,-0.6266,-0.6273,-0.6306,-0.6318,-0.6319,-0.6347,-0.637,-0.6416,-0.642,-0.6427,-0.6422,-0.6466,-0.6465,-0.6464,-0.6424,-0.6419,-0.6414,0,0,0,0,0,0,-0.6124,-0.6176,-0.6193,-0.6205,-0.6231,-0.6275,-0.6277,-0.6299,-0.6322,-0.6324,-0.6364,-0.6373,-0.6385,-0.6405,-0.6409,-0.6425,-0.6444,-0.6444,-0.6411,-0.6407,-0.6403,-0.6397,-0.6444,0,0,0,0,0,-0.6115,-0.6132,-0.6176,-0.6182,-0.6194,-0.6233,-0.6245,-0.6268,-0.6297,-0.6308,-0.6337,-0.6364,-0.6384,-0.6397,-0.6418,-0.6426,-0.6435,-0.6426,-0.6422,-0.6418,-0.6418,-0.6424,-0.642,-0.6459,-0.6459,-0.6459,0,0,-0.6096,-0.6127,-0.6134,-0.6173,-0.6196,-0.6212,-0.6242,-0.6257,-0.627,-0.631,-0.6328,-0.635,-0.6382,-0.6394,-0.6401,-0.6412,-0.6409,-0.6417,-0.6413,-0.6415,-0.6422,-0.6418,-0.6415,-0.6458,-0.6458,-0.6458,0,0,-0.607,-0.6095,-0.6102,-0.6125,-0.616,-0.6186,-0.6187,-0.6228,-0.6245,-0.6263,-0.6294,-0.6309,-0.6343,-0.6365,-0.6381,-0.6364,-0.6386,-0.637,-0.6348,-0.6354,-0.6351,-0.6348,-0.6342,-0.634,-0.6369,-0.6369,-0.6369,0,-0.6042,-0.6068,-0.6104,-0.6118,-0.6134,-0.6172,-0.618,-0.62,-0.624,-0.625,-0.6261,-0.6306,-0.633,-0.6348,-0.6344,-0.6355,-0.6359,-0.6365,-0.6348,-0.6346,-0.6344,-0.6339,-0.6337,-0.6367,-0.6367,-0.6367,-0.6368,0,-0.6032,-0.6049,-0.6051,-0.6089,-0.6105,-0.6116,-0.6154,-0.6166,-0.6188,-0.6213,-0.6231,-0.6262,-0.629,-0.6297,-0.6318,-0.6318,-0.6323,-0.6341,-0.636,-0.6338,-0.6334,-0.6332,-0.6364,-0.6364,-0.6365,-0.6366,0,0,-0.5977,-0.6035,-0.6035,-0.6053,-0.6094,-0.6108,-0.6121,-0.6149,-0.6159,-0.6185,-0.6197,-0.6226,-0.6242,-0.626,-0.6284,-0.6289,-0.6274,-0.6307,-0.6308,-0.6299,-0.6276,-0.6263,-0.626,-0.629,-0.6289,-0.6289,-0.6274,0,-0.5957,-0.5983,-0.6015,-0.603,-0.6046,-0.6083,-0.6094,-0.6121,-0.6145,-0.6162,-0.6189,-0.6208,-0.6229,-0.624,-0.6247,-0.6275,-0.627,-0.6276,-0.6301,-0.6301,-0.6291,-0.6258,-0.6243,-0.6227,-0.6272,-0.6272,-0.6272,0,-0.5937,-0.5962,-0.5978,-0.6018,-0.6026,-0.6036,-0.6065,-0.6081,-0.6112,-0.6129,-0.6149,-0.6176,-0.6192,-0.6209,-0.6232,-0.6235,-0.6247,-0.6263,-0.6263,-0.6266,-0.6285,-0.626,-0.6222,-0.622,-0.627,-0.627,-0.627,0,-0.5896,-0.5933,-0.5947,-0.5961,-0.6009,-0.6015,-0.6035,-0.6067,-0.6081,-0.6107,-0.6117,-0.6143,-0.6158,-0.6178,-0.6211,-0.622,-0.623,-0.625,-0.6244,-0.6243,-0.6244,-0.6243,-0.6208,-0.6252,-0.6252,-0.6252,-0.6252,0,-0.587,-0.5878,-0.5929,-0.5938,-0.5949,-0.5986,-0.5996,-0.6019,-0.6047,-0.6061,-0.6095,-0.6108,-0.6151,-0.6168,-0.6194,-0.6209,-0.6215,-0.623,-0.6236,-0.6227,-0.6225,-0.6235,-0.6237,-0.6252,-0.6252,-0.6252,-0.6252,0,-0.5825,-0.586,-0.5878,-0.5921,-0.5933,-0.5938,-0.5976,-0.5986,-0.6012,-0.603,-0.6036,-0.6077,-0.6099,-0.6135,-0.6168,-0.6185,-0.6196,-0.6207,-0.6185,-0.6189,-0.6181,-0.6181,-0.6151,-0.6149,-0.6194,-0.6193,-0.6193,0,-0.5806,-0.5814,-0.5858,-0.587,-0.5889,-0.5908,-0.5924,-0.5961,-0.5976,-0.6013,-0.6018,-0.6044,-0.6066,-0.6101,-0.6133,-0.6159,-0.6171,-0.6158,-0.6175,-0.6165,-0.6171,-0.617,-0.6171,-0.6154,-0.6154,-0.6153,-0.6153,0,-0.577,-0.5786,-0.5808,-0.5835,-0.5852,-0.5876,-0.5901,-0.5908,-0.5952,-0.5967,-0.5991,-0.6008,-0.6042,-0.6067,-0.6097,-0.6118,-0.6142,-0.6147,-0.6147,-0.6137,-0.6124,-0.6131,-0.6174,-0.6148,-0.6148,-0.6149,-0.6149,-0.6149,-0.5737,-0.5746,-0.5778,-0.5801,-0.5824,-0.5846,-0.5858,-0.5886,-0.5906,-0.5937,-0.5958,-0.5981,-0.6013,-0.6056,-0.6075,-0.6094,-0.6104,-0.6104,-0.6104,-0.6104,-0.61,-0.6122,-0.6099,-0.61,-0.61,-0.61,-0.61,0,-0.5702,-0.5725,-0.5746,-0.578,-0.5798,-0.5819,-0.5848,-0.5862,-0.5881,-0.5909,-0.593,-0.5958,-0.5982,-0.6017,-0.6044,-0.6052,-0.6064,-0.6058,-0.6058,-0.6062,-0.6089,-0.6086,-0.6048,-0.6048,-0.6048,-0.6048,-0.6048,-0.6048,-0.5686,-0.5702,-0.5722,-0.5749,-0.5773,-0.5795,-0.581,-0.5831,-0.5853,-0.5882,-0.5903,-0.5925,-0.5956,-0.5986,-0.6009,-0.6019,-0.6028,-0.6018,-0.6031,-0.6055,-0.606,-0.6065,-0.6062,-0.6019,-0.6019,-0.6003,-0.6002,-0.6002]}]]